Location: Adrasan
(36.3319°N, 30.4314°E)
Time: 11:52:35
(UTC+00:00)

Daily predictions for brighter satellites

Satellite Brightness Start Highest point End
(mag) Time Altitude Azimuth Time Altitude Azimuth Time Altitude Azimuth
Cosmos 2263 Rocket 4.3 15:03:47 10° WSW 15:07:58 22° WNW 15:12:12 10° N
Cosmos 2251 Rocket 3.6 15:02:47 10° N 15:08:04 57° ENE 15:13:20 10° SSE
Helios 1B rocket 2.6 15:08:22 10° S 15:12:17 76° WSW 15:16:14 10° NNW
USA 305 3.0 15:09:29 10° NW 15:13:18 68° SW 15:17:03 10° SE
CZ-4B R/B 4.0 15:12:19 10° SE 15:15:42 41° ENE 15:19:08 10° N
USA 307 4.0 15:15:13 10° WNW 15:18:54 44° SW 15:22:26 10° SSE
Cosmos 1190 Rocket 4.5 15:15:16 10° N 15:20:11 38° ENE 15:25:03 10° SE
OAO 2 Rocket 4.3 15:17:56 10° SW 15:22:28 36° SSE 15:27:05 10° E
Cosmos 1371 Rocket 4.0 15:19:01 10° S 15:24:12 71° ESE 15:29:28 10° NNE
ERS-2 3.6 15:22:03 10° SSW 15:24:42 32° W 15:27:23 10° NNW
DELTA 2 R/B (1) 4.3 15:21:58 10° SW 15:27:14 43° SSE 15:32:09 12° E
Cosmos 1140 Rocket 3.9 15:24:11 10° NNW 15:29:18 68° WSW 15:34:22 10° S
Meteor 1-25 Rocket 4.2 15:25:10 10° N 15:30:48 83° E 15:36:21 10° S
COSMO-SKYMED 1 3.2 15:29:44 10° NNE 15:33:44 35° E 15:37:42 10° SSE
SL-8 R/B 4.3 15:30:26 10° WNW 15:35:08 60° SW 15:39:50 10° SE
Cosmos 1420 Rocket 4.1 15:30:05 10° SSW 15:35:19 85° WNW 15:40:38 10° NNE
Meteor 1-31 Rocket 2.6 15:33:34 10° SSE 15:37:15 85° E 15:40:59 10° N
Lacrosse 5 3.6 15:37:36 10° W 15:41:48 26° NW 15:46:00 10° NNE
Cosmos 1603 4.0 15:40:42 10° NNW 15:46:20 71° WSW 15:51:54 10° SSE
Cosmos 1624 Rocket 4.2 15:41:13 10° SSW 15:46:25 74° WNW 15:51:38 10° NNE
ISS 0.1 15:46:31 10° WSW 15:47:04 10° SW 15:47:37 10° SW
Meteor 1-26 Rocket 4.2 15:41:35 10° S 15:47:06 73° E 15:52:49 10° NNE
Meteor 1-5 Rocket 4.4 15:41:45 10° N 15:47:27 55° ENE 15:53:15 10° SSE
Helios 1A 2.9 15:43:40 10° NNE 15:47:50 85° ESE 15:51:57 10° SSW
Cosmos 2026 Rocket 4.1 15:42:45 10° S 15:49:01 82° W 15:55:24 10° N
Cosmos 1271 Rocket 3.2 15:45:42 10° N 15:49:20 38° ENE 15:52:56 10° SSE
CZ-4B R/B 3.5 15:44:47 10° SSE 15:49:43 57° ENE 15:54:33 10° N
BREEZE-M DEB (TANK) 3.5 15:48:14 10° SW 15:51:51 88° NW 16:02:06 15° NE
Cosmos 1553 Rocket 4.3 15:47:08 10° N 15:53:03 43° ENE 15:58:51 10° SSE
COSMOS 2455 2.8 15:50:22 10° SSW 15:56:22 81° ESE 16:02:02 12° NNE
Delta 2 Rocket 3.5 15:53:36 10° WSW 15:58:21 76° S 16:00:47 26° E
Cosmos 1766 Rocket 3.5 15:54:06 10° N 15:58:23 58° E 16:02:37 10° SSE
ATLAS 2AS CENTAUR R/B 2.7 15:54:34 10° NNW 16:01:12 53° NE 16:07:33 10° SE
Lacrosse 4 Rocket 4.2 15:58:23 10° NW 16:01:42 22° WSW 16:04:55 10° SSW
CZ-4 R/B 4.3 16:04:01 10° SSE 16:08:02 61° ENE 16:12:03 10° N
ADEOS 3.7 16:05:36 10° SE 16:10:33 46° ENE 16:15:32 10° N
Centaur D AC-28 4.0 15:49:18 10° W 16:11:18 51° SSW 16:15:32 16° ESE
Cosmos 676 Rocket 3.9 16:09:47 10° NNW 16:15:04 73° ENE 16:20:17 10° SSE
Radarsat Rocket 3.8 16:10:06 10° SSE 16:15:53 76° ENE 16:21:58 10° NNW
Cosmos 1110 Rocket 4.1 16:13:25 10° S 16:18:29 52° ESE 16:20:43 31° NE
SKYMED 2 4.0 16:17:30 10° N 16:21:48 61° WNW 16:26:03 10° SSW
SL-4 R/B 2.7 16:21:03 10° W 16:24:07 33° NW 16:24:43 30° N
SL-08 R/B 3.3 16:23:03 14° N 16:27:03 83° WNW 16:31:45 10° SSW
Meteor 1-10 Rocket 4.5 16:23:02 10° SSE 16:28:40 48° E 16:30:45 34° NE
NOAA 6 4.2 16:23:37 10° S 16:28:44 75° WSW 16:33:52 10° NNW
Cosmos 1842 Rocket 3.5 16:25:14 10° S 16:29:33 79° W 16:32:32 20° N
USA 234 3.6 16:27:09 21° NNE 16:31:33 59° NW 16:37:55 10° WSW
SKYMED 3 4.4 16:32:51 60° ESE 16:32:51 60° ESE 16:36:35 10° S
Cosmos 1833 Rocket 4.1 16:27:55 10° N 16:30:16 21° NNE 16:30:16 21° NNE
Cosmos 1378 3.0 16:31:53 10° SSW 16:35:19 71° W 16:35:25 71° WNW
EO 1 Delta rocket 4.3 16:31:17 10° SSE 16:38:05 86° ENE 16:43:27 10° N
Cosmos 1417 Rocket 4.4 16:31:50 10° N 16:38:09 67° E 16:44:28 10° SSE
RESURS DK-1 3.0 16:36:46 10° NNW 16:40:46 54° WSW 16:44:44 10° S
Gbstr 26 Del rocket 3.2 16:45:32 10° SW 16:49:45 60° S 16:49:45 60° S
DMSP B5D1-3 4.3 16:55:21 79° NE 16:55:40 86° ESE 17:00:45 10° SSW
Cosmos 1452 Rocket 4.1 16:53:28 10° SSW 16:58:36 55° WNW 17:00:44 33° N
OAO 2 Rocket 3.6 17:01:52 10° WSW 17:06:13 62° SW 17:06:13 62° SW
DELTA 2 R/B (1) 3.7 17:07:54 10° W 17:12:54 68° WNW 17:12:54 68° WNW
Cosmos 2278 Rocket 2.9 17:16:21 10° SSW 17:20:12 46° SSW 17:20:12 46° SSW
Cosmos 1655 Rocket 4.3 17:23:34 10° SSW 17:29:41 62° W 17:30:37 55° NW
ATLAS 2AS CENTAUR R/B 4.5 17:46:18 10° NW 17:51:36 25° WSW 17:56:46 10° SSW
